EW3090 Weather Reports


Display with metric or nautical units.
time (UTC)temp
F
wind
direction
speed
MPH
gust
MPH
rain 1hr
in
rain 24hr
in
rain mn
in
humidity
%
barometer
mb
20260509013023 55 355 0.0 0.0 0.00 0.00 0.00 90 1008.6
20260509011518 55 17 0.0 0.0 0.00 0.00 0.00 90 1008.5
20260509010017 55 18 0.0 0.0 0.00 0.00 0.00 90 1008.5
20260509004517 55 23 0.0 0.0 0.00 0.00 0.00 90 1008.5
20260509003016 55 24 0.0 0.0 0.00 0.00 0.00 90 1008.6
20260509001512 55 28 0.0 0.0 0.00 0.00 0.00 90 1008.6
20260509000012 55 30 0.0 0.0 0.00 0.00 0.00 90 1008.8
20260508234510 55 14 0.0 0.0 0.00 0.00 0.00 90 1008.8
20260508233010 55 59 0.0 0.0 0.00 0.00 0.00 90 1008.8
20260508231507 55 39 0.0 0.0 0.00 0.00 0.00 89 1008.8
20260508230006 55 21 0.0 0.0 0.00 0.00 0.00 89 1008.7
20260508224505 55 46 0.0 0.0 0.00 0.00 0.00 88 1008.9
20260508223006 56 48 0.0 0.0 0.00 0.00 0.00 88 1009.0
20260508221558 56 53 0.0 0.0 0.00 0.00 0.00 87 1009.2
20260508220119 57 20 0.0 0.0 0.00 0.00 0.00 86 1009.3
20260508214557 57 20 0.0 0.0 0.00 0.00 0.00 85 1009.1
20260508213054 58 19 0.0 0.0 0.00 0.00 0.00 83 1009.1
20260508211549 58 61 0.0 0.0 0.00 0.00 0.00 82 1009.2
20260508210044 59 63 0.0 0.0 0.00 0.00 0.00 79 1009.3
20260508204544 59 53 0.0 0.0 0.00 0.00 0.00 74 1009.5
20260508203045 60 67 0.0 0.0 0.00 0.00 0.00 71 1009.6
20260508201512 61 46 0.0 0.0 0.00 0.00 0.00 67 1009.5
20260508200011 61 70 0.0 1.0 0.00 0.00 0.00 63 1009.7
20260508194506 62 59 0.0 0.0 0.00 0.00 0.00 61 1009.7
20260508193005 63 5 1.0 10.0 0.00 0.00 0.00 59 1009.8
20260508191510 63 62 0.0 14.0 0.00 0.00 0.00 59 1009.8
20260508190008 64 23 0.0 13.0 0.00 0.00 0.00 55 1009.9
20260508184500 66 60 0.0 15.0 0.00 0.00 0.00 56 1009.8
20260508183004 66 9 0.0 10.0 0.00 0.00 0.00 54 1009.9
20260508181610 66 51 0.0 0.0 0.00 0.00 0.00 55 1009.9
20260508180108 66 26 0.0 0.0 0.00 0.00 0.00 55 1010.0
20260508174534 67 48 2.0 14.0 0.00 0.00 0.00 51 1010.2
20260508173022 66 54 0.0 25.0 0.00 0.00 0.00 55 1010.5
20260508171518 66 58 0.0 10.0 0.00 0.00 0.00 54 1010.8
20260508170014 65 38 0.0 1.0 0.00 0.00 0.00 55 1011.1
20260508164511 64 53 0.0 1.0 0.00 0.00 0.00 57 1011.4
20260508163012 64 44 1.0 15.0 0.00 0.00 0.00 56 1011.6
20260508161503 64 49 0.0 0.0 0.00 0.00 0.00 57 1011.8
20260508160105 63 56 0.0 0.0 0.00 0.00 0.00 58 1012.1
20260508160001 63 53 0.0 0.0 0.00 0.00 0.00 59 1012.1
20260508154559 62 33 0.0 0.0 0.00 0.00 0.00 61 1012.2
20260508154557 62 65 0.0 0.0 0.00 0.00 0.00 61 1012.2
20260508153100 61 47 1.0 12.0 0.00 0.00 0.00 61 1012.5
20260508151552 60 41 0.0 0.0 0.00 0.00 0.00 62 1012.5
20260508150048 59 59 4.0 12.0 0.00 0.00 0.00 64 1012.6
20260508144545 58 48 0.0 0.0 0.00 0.00 0.00 62 1012.7
20260508143051 57 40 0.0 0.0 0.00 0.00 0.00 67 1012.9
20260508141554 56 53 9.0 14.0 0.00 0.00 0.00 67 1013.1
20260508140041 56 53 4.0 10.0 0.00 0.00 0.00 67 1013.1
20260508134553 55 61 7.0 11.0 0.00 0.00 0.00 68 1013.0
20260508133036 53 40 0.0 0.0 0.00 0.00 0.00 72 1013.1
20260508131535 52 32 0.0 0.0 0.00 0.00 0.00 74 1013.0
20260508130033 51 17 0.0 0.0 0.00 0.00 0.00 77 1013.1
20260508124535 51 37 0.0 0.0 0.00 0.00 0.00 78 1013.2
20260508123032 50 39 0.0 0.0 0.00 0.00 0.00 79 1013.1
20260508121539 50 39 0.0 0.0 0.00 0.00 0.00 79 1013.4
20260508120028 50 39 0.0 0.0 0.00 0.00 0.00 79 1013.5
20260508114528 49 39 0.0 0.0 0.00 0.00 0.00 79 1013.2
20260508113028 50 39 0.0 0.0 0.00 0.00 0.00 77 1013.2
20260508111527 50 39 0.0 0.0 0.00 0.00 0.00 76 1013.0
20260508110024 49 40 0.0 0.0 0.00 0.00 0.00 77 1012.8
20260508104524 50 42 0.0 0.0 0.00 0.00 0.00 76 1012.8
20260508103033 50 58 0.0 0.0 0.00 0.00 0.00 75 1012.7
20260508101523 50 53 0.0 0.0 0.00 0.00 0.00 72 1012.6
20260508100024 50 60 0.0 0.0 0.00 0.00 0.00 71 1012.6
20260508094519 50 31 0.0 0.0 0.00 0.00 0.00 71 1012.6
20260508093020 50 36 0.0 0.0 0.00 0.00 0.00 71 1012.5
20260508091518 50 36 0.0 0.0 0.00 0.00 0.00 71 1012.5
20260508090021 50 41 0.0 0.0 0.00 0.00 0.00 69 1012.6
20260508084514 51 22 0.0 1.0 0.00 0.00 0.00 68 1012.5
20260508083013 51 24 0.0 11.0 0.00 0.00 0.00 67 1012.6
20260508081534 50 31 0.0 0.0 0.00 0.00 0.00 68 1012.7
20260508080010 50 48 0.0 0.0 0.00 0.00 0.00 68 1012.8
20260508074509 50 48 0.0 0.0 0.00 0.00 0.00 67 1012.8
20260508073009 50 32 0.0 0.0 0.00 0.00 0.00 68 1012.9
20260508071516 50 17 0.0 1.0 0.00 0.00 0.00 68 1012.9
20260508070006 50 15 0.0 0.0 0.00 0.00 0.00 69 1012.9
20260508064510 49 20 0.0 0.0 0.00 0.00 0.00 70 1013.1
20260508063014 49 22 0.0 0.0 0.00 0.00 0.00 71 1013.1
20260508061505 49 26 0.0 0.0 0.00 0.00 0.00 71 1013.1
20260508060002 49 30 0.0 0.0 0.00 0.00 0.00 72 1013.2
20260508054602 49 27 0.0 0.0 0.00 0.00 0.00 73 1013.3
20260508053102 50 34 0.0 0.0 0.00 0.00 0.00 73 1013.3
20260508051559 50 35 0.0 0.0 0.00 0.00 0.00 73 1013.4
20260508050029 50 23 0.0 0.0 0.00 0.00 0.00 74 1013.4
20260508044530 49 9 0.0 1.0 0.00 0.00 0.00 74 1013.4
20260508043027 49 342 0.0 0.0 0.00 0.00 0.00 75 1013.3
20260508041529 49 19 0.0 0.0 0.00 0.00 0.00 75 1013.2
20260508040025 49 17 0.0 0.0 0.00 0.00 0.00 75 1013.2
20260508034525 49 17 0.0 0.0 0.00 0.00 0.00 77 1013.1
20260508033023 49 5 0.0 0.0 0.00 0.00 0.00 77 1013.1
20260508031523 49 344 0.0 0.0 0.00 0.00 0.00 77 1013.0
20260508030021 48 348 0.0 0.0 0.00 0.00 0.00 78 1013.1
20260508024536 48 5 0.0 0.0 0.00 0.00 0.00 78 1013.1
20260508023120 49 5 0.0 0.0 0.00 0.00 0.00 78 1013.0
20260508021553 49 5 0.0 0.0 0.00 0.00 0.00 78 1013.0
20260508020049 49 5 0.0 0.0 0.00 0.00 0.00 78 1013.1
20260508014516 49 54 0.0 0.0 0.00 0.00 0.00 77 1013.1